Regional Weather Roundup
Issued by NWS

Home | Current Version | Previous Version | Text Only | Print | Product List | Glossary On
Versions: 1 2 3 4 5 6 7 8 9 10 11 12 13 14 15 16 17 18 19 20 21 22 23 24 25 26 27 28 29 30 31 32 33 34 35 36 37 38 39 40 41 42 43 44 45 46 47 48 49 50
000
ASUS43 KLSX 280910
RWRMO

WEATHER SUMMARY FOR MISSOURI
NATIONAL WEATHER SERVICE SPRINGFIELD MO
400 AM CDT FRI JUL 28 2017

NOTE: "FAIR" INDICATES FEW OR NO CLOUDS BELOW 12,000 FEET WITH NO
       SIGNIFICANT WEATHER AND/OR OBSTRUCTIONS TO VISIBILITY.
       CURRENT SKY AND/OR WEATHER CONDITIONS ARE NOT AVAILABLE FOR
       CHILLICOTHE AND FARMINGTON.

MOZ001>031-035>038-043-044-053-054-281000-
...NORTHERN AND WESTERN MISSOURI...

CITY           SKY/WX    TMP DP  RH WIND       PRES   REMARKS
KANSAS CTY INT CLOUDY    73  68  84 NE9       29.96S
LEE`S SUMMIT   CLOUDY    74  73  97 NE6       29.95S
ST JOSEPH      CLEAR     69  66  90 CALM      29.97R
CHILLICOTHE      N/A     71  68  90 CALM      29.97S
KIRKSVILLE     CLEAR     67  65  93 NE6       29.97S

$$
MOZ066>068-077>081-088>096-101>105-281000-
...SOUTHWEST MISSOURI...

CITY           SKY/WX    TMP DP  RH WIND       PRES   REMARKS
SPRINGFIELD    CLOUDY    77  76  96 CALM      29.90F
JOPLIN         CLOUDY    76  76 100 CALM      29.90S
BRANSON        CLOUDY    75  75 100 CALM      29.92S FOG

$$
MOZ032>034-039>042-045>050-055>058-069>072-281000-
...CENTRAL MISSOURI...

CITY           SKY/WX    TMP DP  RH WIND       PRES   REMARKS
COLUMBIA       CLEAR     73  72  96 NE8       29.92R
JEFFERSON CITY MOCLDY    76  74  93 NE3       29.90S
ROLLA          PTCLDY    71  71 100 N5        29.92S
SEDALIA        CLOUDY    74  74 100 N3        29.94S
WHITEMAN AFB   PTCLDY    70  70 100 N6        29.92F FOG
WARRENSBURG    CLEAR     70  70 100 NW3       29.93S FOG
OSAGE BEACH    CLEAR     72  72 100 CALM      29.92R

$$
MOZ051-052-059>065-281000-
...EAST CENTRAL MISSOURI...

CITY           SKY/WX    TMP DP  RH WIND       PRES   REMARKS
ST LOUIS INTL  CLOUDY    76  68  76 NE8       29.89R
SPIRIT OF STL  CLOUDY    75  71  87 NE9       29.87S
ST CHARLES     MOCLDY    74  68  81 NE7       29.88R

$$
MOZ072>076-082>087-097>100-106>115-281000-
...SOUTH CENTRAL AND SOUTHEAST MISSOURI...

CITY           SKY/WX    TMP DP  RH WIND       PRES   REMARKS
CAPE GIRARDEAU CLOUDY    77  74  90 W5        29.83S
FARMINGTON     CLOUDY    74  73  97 NW6       29.88F
POPLAR BLUFF   CLOUDY    78  77  96 NW3       29.83F
WEST PLAINS    CLOUDY    75  73  93 CALM      29.91F

$$




USA.gov is the U.S. government's official web portal to all federal, state and local government web resources and services.